Weather Roundup
Issued by NWS

Home | Current Version | Previous Version | Graphics & Text | Print | Product List | Glossary Off
Versions: 1 2 3 4 5 6 7 8 9 10 11 12 13 14 15 16 17 18 19 20 21 22 23 24 25 26 27 28 29 30 31 32 33 34 35 36 37 38 39 40 41 42 43 44 45 46 47 48 49 50

000
NZUS93 KARX 260210
HRRWXR

CURRENT HOURLY OBSERVATIONS ACROSS
MUCH OF THE UPPER MISSISSIPPI VALLEY
NATIONAL WEATHER SERVICE LA CROSSE WI
900 PM CDT MON JUL 25 2016


...SOUTHEAST MINNESOTA...


CITY           SKY/WX    TMP DP  RH WIND       PRES   REMARKS
ROCHESTER      CLEAR     72  67  84 W6        30.06R
ROCHESTER/MAYO FAIR      78  64  63 W5        30.05S
WINONA         CLEAR     73  63  68 CALM      30.03R
AUSTIN         CLEAR     73  64  73 CALM      30.06S
ALBERT LEA     CLEAR     73  66  78 CALM      30.06S
DODGE CENTER   CLEAR     73  63  68 W3        30.06S
PRESTON        CLEAR     73  64  72 NW3       30.06S
OWATONNA       CLEAR     72  66  83 CALM      30.06R
FARIBAULT      CLEAR     72  70  94 CALM      30.05S
$$

...ELSEWHERE IN MINNESOTA...


CITY           SKY/WX    TMP DP  RH WIND       PRES   REMARKS
MINNEAPOLIS    CLEAR     82  63  52 W6        30.02S
INTNL FALLS    CLEAR     68  62  81 CALM      29.95S
DULUTH         CLEAR     73  64  73 W6        30.00R
RED WING       CLEAR     73  70  88 CALM      30.02R
REDWOOD FALLS  CLEAR     78  67  68 S5        30.02S
MANKATO        CLEAR     79  64  61 CALM      30.04S
WORTHINGTON    CLEAR     76  65  68 MISG      30.08R
FAIRMONT       CLEAR     77  66  69 SE3       30.05S
$$

...SOUTHWEST WISCONSIN...


CITY           SKY/WX    TMP DP  RH WIND       PRES   REMARKS
LA CROSSE      CLEAR     78  66  66 CALM      30.02R
PRAIRIE DU CHI CLEAR     73  66  78 CALM      30.03R
BOSCOBEL       CLEAR     72  67  84 CALM      30.03R
LONE ROCK      CLEAR     72  67  84 W3        30.03R
PLATTEVILLE    CLEAR     73  68  82 NW3       30.04S
FORT MC COY    CLEAR     69  67  91 CALM      30.04R
CAMP DOUGLAS   PTCLDY    68  64  88 NW1       30.03R
MAUSTON-NEW LI CLEAR     70  66  86 CALM      30.02R
VIROQUA        FAIR      69  67  92 CALM      30.06R
WIS DELLS      PTCLDY    73  63  71 CALM      30.03S
$$

...ELSEWHERE IN WISCONSIN...


CITY           SKY/WX    TMP DP  RH WIND       PRES   REMARKS
MILWAUKEE      PTCLDY    79  63  57 S5        30.00R
MADISON        PTCLDY    73  66  78 CALM      30.01S
GREEN BAY      CLEAR     70  68  93 W5        29.98R
EAU CLAIRE     CLEAR     75  65  70 CALM      30.01S
BLACK RVR FLS  FAIR      69  68  96 CALM      30.02R
MEDFORD        CLEAR     66  65  95 CALM      30.03S
WAUSAU         CLEAR     74  60  61 W5        30.00S
WIS RAPIDS     CLEAR     70  63  78 CALM      30.03R
MARSHFIELD     CLEAR     71  63  75 W5        30.03R
RICE LAKE      CLEAR     69  65  84 CALM      30.03S
$$

...NORTHEAST IOWA...


CITY           SKY/WX    TMP DP  RH WIND       PRES   REMARKS
WATERLOO       CLEAR     73  66  78 NW3       30.04R
DUBUQUE        CLEAR     71  65  81 NW6       30.05R
DECORAH        CLEAR     72  66  83 CALM      30.05R
MASON CITY     CLEAR     71  66  84 CALM      30.08R
CHARLES CITY   CLEAR     72  72 100 CALM      30.07R
OELWEIN        CLEAR     73  66  78 N3        30.06R
$$

...ELSEWHERE IN IOWA...


CITY           SKY/WX    TMP DP  RH WIND       PRES   REMARKS
DES MOINES     PTCLDY    81  62  52 NE5       30.04R
IOWA CITY      CLEAR     79  64  60 CALM      30.04R
FORT DODGE     CLEAR     72  68  88 CALM      30.07R
MARSHALLTOWN   CLEAR     73  66  78 N7        30.04S
CEDAR RAPIDS   CLEAR     76  65  68 N5        30.03R
$$

...NORTHERN ILLINOIS...


CITY           SKY/WX    TMP DP  RH WIND       PRES   REMARKS
CHICAGO-OHARE  PTCLDY    78  64  61 CALM      29.99R
CHICAGO-MIDWAY MOCLDY    81  60  48 E6        29.99R
MOLINE         CLEAR     78  64  61 CALM      30.02R
ROCKFORD       CLOUDY    80  63  55 W6        30.02R
PEORIA         PTCLDY    77  71  82 CALM      30.02R
$$

NOTE: "FAIR" INDICATES FEW OR NO CLOUDS BELOW 12,000 FEET WITH NO
SIGNIFICANT WEATHER AND/OR OBSTRUCTIONS TO VISIBILITY. WIND
SPEEDS ARE IN MILES-PER-HOUR.




USA.gov is the U.S. government's official web portal to all federal, state and local government web resources and services.